[[{"header":{"parameterUnit":"m.s-1","parameterCategory":1,"la1":30.2992,"la2":30.254,"lo1":-89.0895,"lo2":-89.0443,"dy":0.0025,"dx":0.0025,"nx":19,"ny":19,"refTime":"2026-04-09T09:00:00:Z","depth":0,"parameterNumber":2,"parameterNumberName":"U-component_of_WINDS"},"data":[0,0,0,-4.1753,-4.1754,-4.1747,-4.1747,-4.1798,-4.1799,0,0,0,0,0,0,0,0,0,0,0,-4.1789,-4.179,-4.1753,-4.1754,-4.1747,-4.1747,-4.1798,-4.1799,0,0,0,0,0,0,0,0,0,0,0,-4.1788,-4.179,-4.1792,-4.1754,-4.1747,-4.1747,-4.1797,-4.1782,0,0,0,0,0,0,0,0,0,0,-4.1778,-4.1843,-4.179,-4.1792,-4.1754,-4.1748,-4.1747,-4.178,-4.1783,-4.1825,0,-4.187,0,-4.1836,-4.1806,-4.1806,0,0,0,-4.173,-4.1842,-4.1809,-4.1792,-4.1755,-4.1748,-4.1743,-4.1781,-4.1784,-4.183,-4.187,-4.1871,-4.1836,-4.1806,-4.1807,-4.213,-4.2132,0,0,-4.173,-4.1806,-4.1807,-4.1813,-4.1815,-4.1744,-4.1744,-4.1782,-4.1833,-4.187,-4.1871,-4.1837,-4.1807,-4.1808,-4.2127,-4.2131,0,0,0,-4.1747,-4.1808,-4.1773,-4.1812,-4.1806,-4.1744,-4.1744,-4.1831,-4.1813,-4.1871,-4.1838,-4.1808,-4.1809,-4.2124,-4.2128,-4.2334,0,0,0,-4.1746,-4.1818,-4.1774,-4.1821,-4.1807,-4.1818,-4.1793,-4.181,-4.1812,-4.1838,-4.1808,-4.181,-4.2121,-4.2126,-4.2322,-4.2419,0,0,0,-4.1778,-4.1821,-4.1831,-4.1825,-4.1825,-4.1815,-4.1799,-4.1809,-4.1794,-4.1806,-4.181,-4.2119,-4.2125,-4.2311,-4.2401,-4.2527,0,0,0,-4.1834,-4.2014,-4.1836,-4.2024,-4.1826,-4.1942,-4.1798,-4.1881,-4.1917,-4.1808,-4.2121,-4.2128,-4.2307,-4.239,-4.2516,-4.2649,-4.271,0,0,-4.2104,-4.205,-4.2155,-4.1994,-4.2162,-4.1937,-4.2135,-4.2096,-4.2028,-4.2101,-4.2107,-4.2326,-4.24,-4.2525,-4.3027,-4.3076,0,0,0,-4.2266,-4.2343,-4.2371,-4.2407,-4.238,-4.2367,-4.2288,-4.2274,-4.2331,-4.208,-4.2402,-4.2444,-4.2514,-4.2574,-4.2616,-4.2673,-4.2158,-4.2158,-4.2157,-4.276,-4.2662,-4.283,-4.2732,-4.277,-4.2687,-4.271,-4.2677,-4.2568,-4.2646,-4.2667,-4.2983,-4.3056,-4.3087,-4.3148,-4.2728,-4.2728,-4.2729,-4.273,-4.3148,-4.3242,-4.3092,-4.3201,-4.3099,-4.319,-4.3119,-4.3039,-4.3111,-4.2959,-4.3016,-4.286,-4.3145,-4.3192,-4.2744,-4.2742,-4.274,-4.2738,-4.2737,-4.3462,-4.349,-4.3468,-4.3511,-4.3556,-4.3451,-4.3527,-4.3429,-4.3339,-4.3396,-4.3409,-4.3405,-4.3391,-4.3408,-4.341,-4.3411,-4.3412,-4.3412,-4.3413,-4.3797,-4.3765,-4.384,-4.3827,-4.3838,-4.3841,-4.3761,-4.377,-4.3756,-4.368,-4.3679,-4.3566,-4.3189,-4.3098,-4.343,-4.3427,-4.3425,-4.3423,-4.3422,-4.423,-4.4116,-4.4232,-4.4244,-4.4221,-4.4274,-4.4148,-4.4176,-4.4169,-4.4211,-4.4083,-4.382,-4.3758,-4.3724,-4.3648,-4.4102,-4.4102,-4.4102,-4.4102,-4.4497,-4.4454,-4.4551,-4.4576,-4.4589,-4.4487,-4.4625,-4.4565,-4.4487,-4.4477,-4.4397,-4.4288,-4.4257,-4.4213,-4.4168,-4.4096,-4.4653,-4.4654,-4.4654,-4.4758,-4.4713,-4.4847,-4.4766,-4.4742,-4.4724,-4.4851,-4.4888,-4.4775,-4.4675,-4.4469,-4.4446,-4.4267,-4.4214,-4.4111,-4.4044,-4.3908,0,0]},{"header":{"parameterUnit":"m.s-1","parameterCategory":1,"la1":30.2992,"la2":30.254,"lo1":-89.0895,"lo2":-89.0443,"dy":0.0025,"dx":0.0025,"nx":19,"ny":19,"refTime":"2026-04-09T09:00:00:Z","depth":0,"parameterNumber":3,"parameterNumberName":"V-component_of_WINDS"},"data":[0,0,0,-0.2651,-0.2653,-0.2776,-0.2776,-0.2915,-0.2916,0,0,0,0,0,0,0,0,0,0,0,-0.2603,-0.2604,-0.265,-0.2653,-0.2776,-0.2776,-0.2915,-0.2916,0,0,0,0,0,0,0,0,0,0,0,-0.2603,-0.2604,-0.2604,-0.2654,-0.2775,-0.2776,-0.2914,-0.2829,0,0,0,0,0,0,0,0,0,0,-0.2713,-0.2658,-0.2603,-0.2604,-0.2654,-0.2775,-0.2776,-0.2825,-0.2834,-0.2851,0,-0.2864,0,-0.2892,-0.2924,-0.2924,0,0,0,-0.2662,-0.265,-0.2693,-0.2604,-0.2655,-0.2775,-0.2723,-0.283,-0.284,-0.2863,-0.2866,-0.2872,-0.2894,-0.2925,-0.2925,-0.2995,-0.2995,0,0,-0.2655,-0.262,-0.2686,-0.2699,-0.2679,-0.2719,-0.2726,-0.2837,-0.2837,-0.2867,-0.2875,-0.2896,-0.2926,-0.2927,-0.2996,-0.2995,0,0,0,-0.263,-0.2614,-0.2655,-0.2693,-0.2716,-0.2722,-0.2731,-0.2832,-0.2849,-0.2877,-0.2898,-0.2926,-0.2928,-0.2996,-0.2995,-0.2956,0,0,0,-0.2626,-0.26,-0.2652,-0.2631,-0.2714,-0.2776,-0.2724,-0.2841,-0.2854,-0.2897,-0.2926,-0.2929,-0.2996,-0.2996,-0.2958,-0.2944,0,0,0,-0.2599,-0.2597,-0.261,-0.2629,-0.268,-0.2775,-0.2798,-0.2845,-0.2867,-0.2925,-0.2929,-0.2996,-0.2996,-0.2959,-0.2946,-0.2951,0,0,0,-0.256,-0.2575,-0.2609,-0.2634,-0.2679,-0.2749,-0.2797,-0.2852,-0.2897,-0.2927,-0.2996,-0.2996,-0.2959,-0.2947,-0.2952,-0.2949,-0.2944,0,0,-0.256,-0.2574,-0.2592,-0.2625,-0.268,-0.2733,-0.2783,-0.2859,-0.2897,-0.296,-0.2963,-0.2957,-0.2946,-0.2951,-0.293,-0.2926,0,0,0,-0.2579,-0.2591,-0.2614,-0.2654,-0.271,-0.2757,-0.2829,-0.2856,-0.2911,-0.2922,-0.2962,-0.2956,-0.2961,-0.2961,-0.2957,-0.2963,-0.2994,-0.2994,-0.2994,-0.2529,-0.2575,-0.2607,-0.2667,-0.2705,-0.2777,-0.2812,-0.2862,-0.29,-0.2908,-0.2927,-0.2908,-0.2907,-0.2905,-0.291,-0.2929,-0.2929,-0.2929,-0.2929,-0.2532,-0.2556,-0.2603,-0.265,-0.2699,-0.274,-0.2808,-0.2833,-0.2878,-0.2898,-0.2905,-0.2923,-0.2899,-0.2906,-0.2926,-0.2927,-0.2927,-0.2927,-0.2927,-0.2504,-0.2524,-0.2555,-0.2616,-0.2658,-0.2719,-0.2758,-0.2802,-0.2844,-0.285,-0.2875,-0.2875,-0.2881,-0.2858,-0.2858,-0.2858,-0.2858,-0.2858,-0.2858,-0.2463,-0.25,-0.2528,-0.2586,-0.2616,-0.2662,-0.2732,-0.2763,-0.2809,-0.2837,-0.2838,-0.2874,-0.2887,-0.289,-0.2857,-0.2858,-0.2858,-0.2858,-0.2858,-0.2449,-0.2458,-0.2501,-0.2531,-0.2603,-0.264,-0.2694,-0.2753,-0.2785,-0.2803,-0.2837,-0.284,-0.2859,-0.2862,-0.2864,-0.2827,-0.2827,-0.2827,-0.2827,-0.2426,-0.2438,-0.2491,-0.2535,-0.2584,-0.2636,-0.2682,-0.2735,-0.2793,-0.2815,-0.2827,-0.2834,-0.2835,-0.2853,-0.2856,-0.2859,-0.2821,-0.2821,-0.2821,-0.2419,-0.2438,-0.2469,-0.2524,-0.2582,-0.2631,-0.2676,-0.2725,-0.2792,-0.2822,-0.2834,-0.2834,-0.2845,-0.2847,-0.2878,-0.2882,-0.2888,0,0]}]]